TimeCDT,TemperatureF,Dew PointF,Humidity,Sea Level PressureIn,VisibilityMPH,Wind Direction,Wind SpeedMPH,Gust SpeedMPH,PrecipitationIn,Events,Conditions,WindDirDegrees,DateUTC
12:15 AM,64.4,64.4,100,30.14,0.2,Calm,Calm,-,N/A,Fog,Fog,0,2012-10-14 05:15:00
12:35 AM,64.4,62.6,94,30.14,0.2,Calm,Calm,-,N/A,Fog,Fog,0,2012-10-14 05:35:00
12:55 AM,64.4,62.6,94,30.13,0.2,Calm,Calm,-,N/A,Fog,Fog,0,2012-10-14 05:55:00
1:15 AM,64.4,62.6,94,30.13,0.2,Calm,Calm,-,N/A,Fog,Fog,0,2012-10-14 06:15:00
1:35 AM,64.4,62.6,94,30.13,0.5,Calm,Calm,-,N/A,Fog,Fog,0,2012-10-14 06:35:00
1:55 AM,62.6,62.6,100,30.12,0.2,Calm,Calm,-,N/A,Fog,Fog,0,2012-10-14 06:55:00
2:15 AM,62.6,62.6,100,30.12,0.2,Calm,Calm,-,N/A,Fog,Fog,0,2012-10-14 07:15:00
2:35 AM,62.6,62.6,100,30.11,0.2,Calm,Calm,-,N/A,Fog,Fog,0,2012-10-14 07:35:00
2:55 AM,62.6,62.6,100,30.10,0.2,Calm,Calm,-,N/A,Fog,Fog,0,2012-10-14 07:55:00
3:15 AM,62.6,62.6,100,30.10,0.2,Calm,Calm,-,N/A,Fog,Fog,0,2012-10-14 08:15:00
3:35 AM,62.6,62.6,100,30.09,0.5,Calm,Calm,-,N/A,Fog,Fog,0,2012-10-14 08:35:00
3:55 AM,62.6,62.6,100,30.09,0.8,Calm,Calm,-,N/A,,Mist,0,2012-10-14 08:55:00
4:15 AM,62.6,62.6,100,30.09,1.5,Calm,Calm,-,N/A,,Mist,0,2012-10-14 09:15:00
4:35 AM,62.6,62.6,100,30.08,0.2,Calm,Calm,-,N/A,Fog,Fog,0,2012-10-14 09:35:00
4:55 AM,62.6,62.6,100,30.08,1.8,Calm,Calm,-,N/A,,Mist,0,2012-10-14 09:55:00
5:15 AM,62.6,62.6,100,30.09,0.5,Calm,Calm,-,N/A,Fog,Fog,0,2012-10-14 10:15:00
5:35 AM,62.6,62.6,100,30.09,3.0,Calm,Calm,-,N/A,,Clear,0,2012-10-14 10:35:00
5:55 AM,62.6,62.6,100,30.09,5.0,Calm,Calm,-,N/A,,Clear,0,2012-10-14 10:55:00
6:15 AM,64.4,64.4,100,30.09,5.0,Calm,Calm,-,N/A,,Clear,0,2012-10-14 11:15:00
6:35 AM,64.4,64.4,100,30.09,0.8,Calm,Calm,-,N/A,,Mostly Cloudy,0,2012-10-14 11:35:00
6:55 AM,64.4,62.6,94,30.10,0.2,Calm,Calm,-,N/A,Fog,Fog,0,2012-10-14 11:55:00
7:15 AM,64.4,64.4,100,30.09,0.8,Calm,Calm,-,N/A,,Mist,0,2012-10-14 12:15:00
7:35 AM,68.0,68.0,100,30.10,7.0,East,3.5,-,N/A,,Clear,100,2012-10-14 12:35:00
8:15 AM,69.8,69.8,100,30.11,10.0,Calm,Calm,-,N/A,,Scattered Clouds,0,2012-10-14 13:15:00
8:35 AM,71.6,69.8,94,30.12,7.0,NNE,3.5,-,N/A,,Scattered Clouds,20,2012-10-14 13:35:00
8:55 AM,71.6,69.8,94,30.13,10.0,North,3.5,-,N/A,,Mostly Cloudy,10,2012-10-14 13:55:00
9:15 AM,73.4,71.6,94,30.14,10.0,NE,4.6,-,N/A,,Overcast,50,2012-10-14 14:15:00
9:35 AM,77.0,71.6,83,30.15,10.0,NE,3.5,-,N/A,,Scattered Clouds,40,2012-10-14 14:35:00
9:55 AM,78.8,71.6,78,30.15,5.0,NNE,3.5,-,N/A,,Haze,20,2012-10-14 14:55:00
10:15 AM,80.6,71.6,74,30.16,10.0,Calm,Calm,-,N/A,,Scattered Clouds,0,2012-10-14 15:15:00
10:35 AM,80.6,71.6,74,30.16,7.0,SE,4.6,-,N/A,,Mostly Cloudy,130,2012-10-14 15:35:00
10:55 AM,80.6,71.6,74,30.16,7.0,SE,3.5,-,N/A,,Scattered Clouds,130,2012-10-14 15:55:00
11:15 AM,80.6,71.6,74,30.16,10.0,WSW,3.5,-,N/A,,Mostly Cloudy,240,2012-10-14 16:15:00
11:35 AM,80.6,73.4,79,30.15,7.0,South,6.9,-,N/A,,Mostly Cloudy,180,2012-10-14 16:35:00
11:55 AM,84.2,71.6,66,30.15,7.0,South,6.9,-,N/A,,Scattered Clouds,180,2012-10-14 16:55:00
12:15 PM,84.2,71.6,66,30.15,7.0,South,6.9,-,N/A,,Overcast,180,2012-10-14 17:15:00
12:35 PM,82.4,71.6,70,30.13,7.0,SSW,5.8,-,N/A,,Overcast,210,2012-10-14 17:35:00
12:55 PM,86.0,69.8,58,30.12,7.0,SW,6.9,-,N/A,,Scattered Clouds,220,2012-10-14 17:55:00
1:15 PM,86.0,69.8,58,30.12,7.0,SSW,5.8,-,N/A,,Scattered Clouds,210,2012-10-14 18:15:00
1:35 PM,86.0,69.8,58,30.10,7.0,South,4.6,-,N/A,,Clear,180,2012-10-14 18:35:00
1:55 PM,86.0,69.8,58,30.09,10.0,South,3.5,-,N/A,,Clear,190,2012-10-14 18:55:00
2:15 PM,86.0,69.8,58,30.08,10.0,South,8.1,-,N/A,,Clear,170,2012-10-14 19:15:00
2:35 PM,84.2,68.0,58,30.07,10.0,South,5.8,-,N/A,,Clear,190,2012-10-14 19:35:00
2:55 PM,86.0,68.0,55,30.06,10.0,SSE,5.8,-,N/A,,Clear,160,2012-10-14 19:55:00
3:15 PM,86.0,68.0,55,30.05,7.0,SE,3.5,-,N/A,,Clear,130,2012-10-14 20:15:00
3:35 PM,86.0,68.0,55,30.05,7.0,South,5.8,-,N/A,,Clear,190,2012-10-14 20:35:00
3:55 PM,84.2,68.0,58,30.04,7.0,South,6.9,-,N/A,,Clear,180,2012-10-14 20:55:00
4:15 PM,82.4,69.8,66,30.04,10.0,SSE,9.2,-,N/A,,Clear,160,2012-10-14 21:15:00
4:35 PM,82.4,68.0,62,30.02,7.0,SSE,9.2,-,N/A,,Clear,150,2012-10-14 21:35:00
4:55 PM,82.4,69.8,66,30.03,7.0,South,9.2,-,N/A,,Clear,170,2012-10-14 21:55:00
5:15 PM,82.4,69.8,66,30.02,10.0,South,9.2,-,N/A,,Clear,170,2012-10-14 22:15:00
5:35 PM,80.6,69.8,70,30.02,10.0,SSE,8.1,-,N/A,,Clear,150,2012-10-14 22:35:00
5:55 PM,80.6,69.8,70,30.00,10.0,SSE,10.4,-,N/A,,Clear,150,2012-10-14 22:55:00
6:15 PM,78.8,69.8,74,30.00,10.0,SSE,9.2,-,N/A,,Clear,150,2012-10-14 23:15:00
6:35 PM,78.8,69.8,74,30.01,10.0,SSE,5.8,-,N/A,,Clear,160,2012-10-14 23:35:00
6:55 PM,77.0,71.6,83,30.01,10.0,SSE,4.6,-,N/A,,Scattered Clouds,150,2012-10-14 23:55:00
7:15 PM,77.0,71.6,83,30.01,10.0,Calm,Calm,-,N/A,,Scattered Clouds,0,2012-10-15 00:15:00
7:35 PM,71.6,69.8,94,30.02,10.0,Calm,Calm,-,N/A,,Clear,0,2012-10-15 00:35:00
7:55 PM,71.6,71.6,100,30.04,10.0,Calm,Calm,-,N/A,,Clear,0,2012-10-15 00:55:00
8:15 PM,71.6,69.8,94,30.03,10.0,Calm,Calm,-,N/A,,Clear,0,2012-10-15 01:15:00
8:35 PM,69.8,68.0,94,30.03,7.0,Calm,Calm,-,N/A,,Clear,0,2012-10-15 01:35:00
8:55 PM,69.8,69.8,100,30.03,7.0,Calm,Calm,-,N/A,,Clear,0,2012-10-15 01:55:00
9:15 PM,68.0,68.0,100,30.03,1.2,Calm,Calm,-,N/A,,Mist,0,2012-10-15 02:15:00
9:35 PM,68.0,68.0,100,30.03,7.0,Calm,Calm,-,N/A,,Clear,0,2012-10-15 02:35:00
9:55 PM,68.0,68.0,100,30.03,1.5,Calm,Calm,-,N/A,,Mostly Cloudy,0,2012-10-15 02:55:00
10:15 PM,68.0,68.0,100,30.03,0.5,Calm,Calm,-,N/A,Fog,Fog,0,2012-10-15 03:15:00
10:35 PM,68.0,68.0,100,30.03,1.8,Calm,Calm,-,N/A,,Scattered Clouds,0,2012-10-15 03:35:00
10:55 PM,66.2,66.2,100,30.03,1.5,Calm,Calm,-,N/A,,Mist,0,2012-10-15 03:55:00
11:15 PM,68.0,68.0,100,30.02,10.0,Calm,Calm,-,N/A,,Clear,0,2012-10-15 04:15:00
11:35 PM,66.2,66.2,100,30.02,1.0,Calm,Calm,-,N/A,,Mist,0,2012-10-15 04:35:00
11:55 PM,66.2,66.2,100,30.01,0.5,Calm,Calm,-,N/A,Fog,Fog,0,2012-10-15 04:55:00